FW4292 Weather Reports


time (UTC)temp
C
wind
direction
speed
KPH
gust
KPH
rain 1hr
cm
rain 24hr
cm
rain mn
cm
humidity
%
barometer
mb
20260507151529 10 336 6.4 20.9 0.00 1.57 0.03 59 1009.5
20260507150024 10 201 6.4 20.9 0.00 1.57 0.03 56 1009.4
20260507144528 10 224 8.0 16.1 0.00 1.57 0.03 61 1009.6
20260507143021 10 250 4.8 17.7 0.00 1.57 0.03 61 1009.4
20260507141520 10 217 11.3 20.9 0.00 1.57 0.03 60 1009.4
20260507140016 9 242 9.7 16.1 0.00 1.57 0.03 70 1009.5
20260507134514 9 217 8.0 19.3 0.00 1.57 0.03 71 1009.3
20260507133009 8 207 6.4 14.5 0.00 1.57 0.03 76 1009.5
20260507131520 7 209 1.6 11.3 0.00 1.57 0.03 76 1009.6
20260507130007 7 206 4.8 11.3 0.00 1.57 0.03 78 1009.8
20260507124506 8 245 3.2 12.9 0.00 1.57 0.03 76 1009.8
20260507123004 8 205 1.6 14.5 0.00 1.57 0.03 77 1009.4
20260507121604 7 14 6.4 17.7 0.00 1.57 0.03 79 1009.1
20260507120100 6 22 3.2 12.9 0.00 1.57 0.03 82 1009.2
20260507114555 6 24 3.2 9.7 0.00 1.57 0.03 84 1009.4
20260507113052 5 355 1.6 8.0 0.00 1.57 0.03 87 1009.2
20260507111552 4 299 1.6 8.0 0.00 1.57 0.03 87 1009.1
20260507110051 4 355 0.0 3.2 0.00 1.57 0.03 87 1009.0
20260507104554 3 355 0.0 3.2 0.00 1.57 0.03 87 1009.2
20260507103049 3 355 0.0 4.8 0.00 1.57 0.03 86 1008.9
20260507101558 3 355 0.0 1.6 0.00 1.57 0.03 86 1008.8
20260507100055 4 355 0.0 3.2 0.00 1.57 0.03 86 1008.9
20260507094547 4 14 1.6 8.0 0.00 1.57 0.03 86 1008.7
20260507093045 4 44 4.8 12.9 0.00 1.57 0.03 87 1009.0
20260507091541 4 348 1.6 6.4 0.00 1.57 0.03 87 1008.9
20260507090041 4 262 1.6 6.4 0.00 1.57 0.03 86 1008.8
20260507084545 4 78 3.2 8.0 0.00 1.57 0.03 87 1008.8
20260507083048 5 75 1.6 4.8 0.00 1.57 0.03 87 1008.5
20260507081537 5 294 0.0 6.4 0.00 1.57 0.03 87 1008.3
20260507080031 5 178 0.0 8.0 0.00 1.57 0.03 87 1008.6
20260507074530 5 80 3.2 12.9 0.00 1.57 0.03 87 1008.6
20260507073030 5 169 4.8 9.7 0.00 1.57 0.03 87 1008.0
20260507071528 5 332 3.2 8.0 0.00 1.57 0.03 88 1007.6
20260507070032 5 269 1.6 9.7 0.00 1.57 0.03 88 1007.6
20260507064533 5 290 1.6 8.0 0.00 1.57 0.03 88 1008.2
20260507063028 5 355 1.6 9.7 0.00 1.57 0.03 88 1008.0
20260507061518 6 164 3.2 11.3 0.00 1.57 0.03 88 1007.7
20260507060020 6 187 1.6 9.7 0.00 1.57 0.03 88 1008.0
20260507054516 6 23 3.2 12.9 0.00 1.57 0.03 89 1008.1
20260507053013 6 332 1.6 12.9 0.00 1.57 0.03 89 1007.9
20260507051511 6 325 1.6 8.0 0.00 1.57 0.03 88 1008.3
20260507050009 6 114 3.2 11.3 0.03 1.57 0.03 89 1007.8
20260507044506 6 220 3.2 9.7 0.03 1.57 0.03 89 1007.8
20260507043005 6 284 3.2 6.4 0.03 1.57 0.03 89 1007.6
20260507041513 6 275 4.8 11.3 0.03 1.57 0.03 89 1007.7
20260507040100 6 315 1.6 9.7 0.00 1.55 0.00 89 1007.6
20260507034559 6 339 4.8 12.9 0.00 1.55 1.55 89 1007.7
20260507033057 6 224 3.2 9.7 0.00 1.55 1.55 89 1007.7
20260507031556 6 285 3.2 16.1 0.00 1.55 1.55 89 1007.7
20260507030055 6 332 4.8 12.9 0.03 1.55 1.55 89 1007.8
20260507024606 7 310 6.4 14.5 0.03 1.55 1.55 89 1007.9
20260507023051 7 173 3.2 12.9 0.05 1.55 1.55 89 1007.8
20260507021549 7 202 4.8 16.1 0.08 1.55 1.55 89 1007.7
20260507020104 7 101 4.8 20.9 0.05 1.52 1.52 89 1007.5
20260507014553 8 251 6.4 17.7 0.05 1.52 1.52 89 1007.4
20260507013047 8 236 6.4 12.9 0.03 1.50 1.50 89 1007.3
20260507011540 8 196 4.8 14.5 0.03 1.45 1.45 89 1006.8
20260507010036 9 209 4.8 9.7 0.03 1.45 1.45 89 1006.6
20260507004539 10 200 4.8 9.7 0.03 1.45 1.45 89 1006.6
20260507003032 10 19 4.8 16.1 0.03 1.45 1.45 89 1006.1
20260507001528 10 267 3.2 8.0 0.03 1.42 1.42 89 1006.1
20260507000027 11 198 3.2 14.5 0.05 1.42 1.42 89 1005.9
20260506234533 12 166 3.2 11.3 0.05 1.42 1.42 90 1005.4
20260506233020 13 235 1.6 14.5 0.10 1.42 1.42 91 1005.2
20260506231531 13 277 6.4 14.5 0.38 1.42 1.42 92 1005.0
20260506230019 13 213 8.0 14.5 0.46 1.40 1.40 92 1004.9
20260506224519 13 188 6.4 12.9 0.48 1.42 1.40 92 1004.9
20260506223027 14 247 4.8 14.5 0.43 1.35 1.32 91 1005.0
20260506221516 14 240 6.4 11.3 0.15 1.04 1.02 91 1005.1
20260506220019 14 192 8.0 14.5 0.15 0.97 0.94 91 1005.1
20260506214515 14 225 8.0 22.5 0.18 1.09 0.91 91 1005.1
20260506213015 14 184 9.7 19.3 0.28 1.07 0.89 91 1004.9
20260506211516 14 171 6.4 16.1 0.36 1.04 0.86 91 1005.0
20260506210014 14 198 6.4 14.5 0.33 0.97 0.79 91 1005.0
20260506204512 14 208 6.4 17.7 0.30 0.91 0.71 91 1005.1
20260506203018 14 206 11.3 19.3 0.20 0.79 0.61 91 1005.2
20260506201515 14 196 9.7 19.3 0.13 0.69 0.51 91 1005.2
20260506200007 14 156 8.0 16.1 0.10 0.64 0.46 91 1005.5
20260506194506 14 198 9.7 16.1 0.10 0.61 0.43 90 1005.8
20260506193004 14 191 12.9 20.9 0.10 0.58 0.41 90 1005.9
20260506191504 14 223 9.7 20.9 0.10 0.56 0.38 90 1005.9
20260506190003 14 196 11.3 27.4 0.10 0.53 0.36 90 1006.0
20260506184501 14 203 11.3 19.3 0.15 0.51 0.33 90 1006.0
20260506183104 14 170 12.9 25.7 0.18 0.48 0.30 89 1006.3
20260506181558 14 163 11.3 29.0 0.20 0.46 0.28 89 1006.6
20260506180056 15 193 9.7 19.3 0.20 0.43 0.25 89 1006.8
20260506174552 15 208 4.8 12.9 0.18 0.38 0.20 88 1007.0
20260506173053 15 204 3.2 9.7 0.13 0.30 0.13 87 1007.2
20260506171552 15 217 4.8 11.3 0.08 0.25 0.08 86 1007.2
20260506170106 15 219 4.8 11.3 0.05 0.23 0.05 84 1007.3
20260506164546 15 231 1.6 4.8 0.03 0.20 0.03 82 1007.3
20260506163057 16 196 0.0 4.8 0.00 0.18 0.00 81 1007.3
20260506161544 15 186 0.0 3.2 0.00 0.18 0.00 81 1007.3
20260506160041 15 186 0.0 4.8 0.00 0.18 0.00 82 1007.7
20260506154536 15 186 1.6 8.0 0.00 0.18 0.00 80 1008.5
20260506153034 15 171 8.0 16.1 0.00 0.18 0.00 77 1008.8